This is the latest recevied weather packets stored in our database for station/object C31FR-13. If no packets are shown the sender has not sent any weather packets the latest 10 day(s).
| Time | Temp. | Humidity | Pressure | Rain* | Wind** | Luminosity | Snow |
|---|---|---|---|---|---|---|---|
| 1788318362 | 19.44° C | 65% | 1024.4 hPa | - | - | - | - |
| 1788314462 | 20° C | 65% | 1024.5 hPa | - | - | - | - |
| 1788313562 | 20° C | 64% | 1024.5 hPa | - | - | - | - |
| 1788313262 | 20° C | 64% | 1024.5 hPa | - | - | - | - |
| 1788311162 | 20.56° C | 63% | 1024.5 hPa | - | - | - | - |
| 1788310862 | 20.56° C | 63% | 1024.4 hPa | - | - | - | - |
| 1788309962 | 20.56° C | 64% | 1024.5 hPa | - | - | - | - |
| 1788309662 | 20.56° C | 64% | 1024.5 hPa | - | - | - | - |
| 1788309362 | 20.56° C | 63% | 1024.5 hPa | - | - | - | - |
| 1788308762 | 21.11° C | 63% | 1024.4 hPa | - | - | - | - |
| 1788308162 | 20.56° C | 63% | 1024.4 hPa | - | - | - | - |
| 1788306661 | 21.11° C | 62% | 1024.2 hPa | - | - | - | - |
| 1788304562 | 21.11° C | 62% | 1024.2 hPa | - | - | - | - |
| 1788303963 | 21.67° C | 62% | 1024.1 hPa | - | - | - | - |
| 1788301562 | 21.67° C | 61% | 1024 hPa | - | - | - | - |
| 1788300363 | 21.67° C | 61% | 1023.9 hPa | - | - | - | - |
| 1788299462 | 22.22° C | 59% | 1023.8 hPa | - | - | - | - |
| 1788297678 | 22.78° C | 59% | 1023.6 hPa | - | - | - | - |
| 1788297363 | 22.78° C | 59% | 1023.6 hPa | - | - | - | - |
| 1788296162 | 22.78° C | 59% | 1023.4 hPa | - | - | - | - |
| 1788295262 | 22.78° C | 59% | 1023.5 hPa | - | - | - | - |
| 1788294662 | 22.78° C | 60% | 1023.4 hPa | - | - | - | - |
| 1788294062 | 23.33° C | 57% | 1023.2 hPa | - | - | - | - |
| 1788293763 | 23.89° C | 57% | 1023.2 hPa | - | - | - | - |
| 1788292262 | 23.89° C | 57% | 1022.8 hPa | - | - | - | - |
* Rain since midnight (hover to see other rain measurements)
** Current wind speed in m/s (hover to see current wind gust speed)